Home   Weather   Wells   Past weeks
Flag for USA

Past Weather in Wells, Maine, USA — Yesterday and Last 2 Weeks

Now
27 °F

Light snow. Ice fog.


Feels Like: 17 °F
Forecast: 31 / 37 °F
Wind: 10 mph from Northeast

Location: Sanford Municipal

Current Time: Nov 16, 2018 at 12:30:49 am

Latest Report: Nov 16, 2018 at 12:09 am


Visibility: 1 mi

Pressure: 30.18 "Hg

Humidity: 93%

Dew Point: 25 °F

Location of WellsLocation

Past Weather in Wells — Graph

°F

Wells Temperature Yesterday

Maximum temperature yesterday: 29 °F (at 12:56 pm)
Minimum temperature yesterday: 12 °F (at 2:56 am)
Average temperature yesterday: 23 °F

High & Low Weather Summary for the Past Weeks

 TemperatureHumidityPressure
High60 °F (Nov 7, 11:56 am)100% (Nov 1, 1:56 pm)30.64 "Hg (Nov 1, 1:56 pm)
Low12 °F (Nov 15, 2:56 am)31% (Nov 11, 1:56 pm)29.42 "Hg (Nov 3, 2:24 pm)
Average40 °F80%30.07 "Hg
* Reported Nov 1 12:56 am — Nov 15 11:39 pm, Wells. Weather by CustomWeather, © 2018

Note: Actual official high and low records may vary slightly from our data, if they occured in-between our weather recording intervals... More about our weather records

Advertising

Wells Weather History for the Previous 24 Hours

Scroll right to see more
 ConditionsComfort  
Time TempWeatherWind HumidityBarometerVisibility
11:39 pm
Thu, Nov 15
27 °FLight snow. Ice fog.8 mph93%30.24 "Hg1 mi
11:12 pm25 °FLight snow. Ice fog.8 mph93%30.25 "Hg1 mi
11:05 pm25 °FLight snow. Ice fog.10 mph93%30.25 "Hg1 mi
10:56 pm26 °FLight snow. Ice fog.8 mph84%30.29 "Hg2 mi
10:29 pm27 °FLight snow. Mostly cloudy.7 mph74%30.30 "Hg2 mi
10:12 pm28 °FLight snow. Mostly cloudy.6 mph64%30.31 "Hg10 mi
9:56 pm28 °FMostly cloudy.7 mph66%30.33 "Hg10 mi
8:56 pm27 °FOvercast.5 mph69%30.39 "Hg10 mi
7:56 pm27 °FPassing clouds.6 mph66%30.42 "Hg10 mi
6:56 pm27 °FClear.No wind66%30.45 "Hg10 mi
5:56 pm27 °FClear.No wind69%30.45 "Hg10 mi
4:56 pm27 °FClear.No wind58%30.47 "Hg10 mi
3:56 pm28 °FSunny.3 mph49%30.50 "Hg10 mi
2:56 pm28 °FSunny.No wind41%30.51 "Hg10 mi
1:56 pm29 °FSunny.3 mph38%30.54 "Hg10 mi
12:56 pm29 °FSunny.3 mph34%30.55 "Hg10 mi
11:56 am28 °FSunny.5 mph34%30.57 "Hg10 mi
10:56 am27 °FSunny.3 mph42%30.60 "Hg10 mi
9:56 am25 °FSunny.No wind50%30.60 "Hg10 mi
8:56 am21 °FSunny.No wind65%30.64 "Hg10 mi
7:56 am18 °FSunny.3 mph71%30.62 "Hg10 mi
6:56 am14 °FSunny.No wind84%30.62 "Hg10 mi
5:56 am14 °FClear.5 mph80%30.63 "Hg10 mi
4:56 am12 °FClear.No wind88%30.61 "Hg10 mi
3:56 am12 °FClear.No wind88%30.59 "Hg10 mi
2:56 am12 °FClear.No wind84%30.60 "Hg10 mi
1:56 am15 °FClear.No wind74%30.61 "Hg10 mi
12:56 am17 °FClear.No wind62%30.59 "Hg10 mi
Weather by CustomWeather, © 2018

See weather overview